Location: Seattle
(47.6064°N, 122.3308°W)
Time: 01:46:20
(UTC-08:00)

Tiros 1 - Pass Details

Date: 26 November 2020
Orbit: 630 x 663 km, 48.4° (Epoch: 28 January)

Event Time Altitude Azimuth Distance (km) Brightness Sun altitude
Rises 20:47:33 0° 285° (WNW) 2,983 11.4 -43.9°
Enters shadow 20:49:11 - 283° (WNW) 2,350 10.7 -44.1°
Reaches altitude 10° 20:49:55 10° 283° (WNW) 2,065 - -44.2°
Maximum altitude 20:54:38 67° 201° (SSW) 707 - -45.0°
Drops below altitude 10° 20:59:18 10° 119° (ESE) 2,037 - -45.7°
Sets 21:01:38 0° 117° (ESE) 2,939 - -46.1°
